Location: Napoli
(40.8639°N, 14.2562°E)
Time: 20:10:21
(UTC+02:00)

ISS - Pass Details

Date: 15 October 2017
Orbit: 401 x 408 km, 51.6° (Epoch: 21 October)

Event Time Altitude Azimuth Distance (km) Brightness Sun altitude
Rises 19:59:25 0° 295° (WNW) 2,324 1.3 -19.1°
Reaches altitude 10° 20:01:48 10° 279° (W) 1,462 0.2 -19.5°
Maximum altitude 20:04:23 22° 227° (SW) 951 -1.5 -20.0°
Enters shadow 20:06:02 15° 187° (S) 1,183 -1.5 -20.3°
